Weather in Zverosovkhoz

Russia / Murmansk Oblast     68°50′34″N   33°05′36″E
temp.,
°C
wind,
m/s
gust,
m/s
humid.,
%
clouds,
%
prec.,
mm/h
press.,
hPa
HPBL,
m
24 june, thu
thu2400:00+9ese3783100 0.1 1020399
03:00+8e1387100 0.1 1019140
06:00+8ne1191100 0.1 1016111
09:00+8ne1195100 1.4 1015145
12:00+8ne1196100 1.4 1015147
15:00+9n119399 2.3 1016349
18:00+10ne018987 0.0 1016396
21:00+10n1192100 0.1 101639
25 june, fri
fri2500:00+8nne119656 0.0 101612
03:00+7ene00988 0.0 101710
06:00+10se128815 0.0 1016231
09:00+15s23675 0.0 1015718
12:00+19s33484 0.0 10141129
15:00+21s344159 0.0 10131878
18:00+20s465098 0.0 10121409
21:00+15wnw2678100 0.1 1012222
26 june, sat
sat2600:00+10n3795100 3.7 1015557
03:00+8n3993100 5.4 1017648
06:00+8wsw1195100 2.1 1018165
09:00+9nnw1283100 2.4 1018600
12:00+13nne2358100 0.1 10181459
15:00+12nne225899 0.1 10181071
18:00+13ne1154100 0.0 10171266
21:00+12e1266100 0.0 101876
27 june, sun
sun2700:00+9se268282 0.0 1017146
03:00+8sse228571 0.0 101746
06:00+11s257786 0.0 1016376
09:00+13s3571100 0.0 1014631
12:00+16ssw3460100 0.0 10131212
15:00+17ssw346098 0.1 10121304
18:00+16s256993 0.1 1011456
21:00+16s2476100 0.1 1010130
28 june, mon
mon2800:00+13se118776 0.0 100917
03:00+13se118433 0.0 100818
06:00+15s2378100 0.0 1006248
09:00+19wsw126663 0.0 1006893
12:00+20nw1264100 0.9 10051079
15:00+17nne337599 2.3 1006661
18:00+15nne447344 0.2 1007606
21:00+12nne238322 0.2 1008340